星链-6151 (STARLINK-6151 )

导读

STARLINK-6151是由美国发射的星链卫星,于2023年6月23日发射升空,归属SpaceX星链互联网星座项目。星链项目旨在通过近地轨道卫星群,为全球提供高速互联网接入服务,该卫星服役后,进一步扩充了星链星座的卫星规模,提升星座覆盖密度与网络服务能力。

Basic Information
目录编号:
57118
目录名称:
STARLINK-6151
国际标识:
2023-090T
轨道中心:
EARTH
卫星名称:
星链-6151
卫星全名:
星链-6151 (STARLINK-6151 )
卫星状态:
已陨落 最后检测时间 2026-03-07
发射日期:
2023-06-23 UTC
国别 :
美国 (US)
星等 :
--
Orbit Information
数据来源 国际轨道数据
星历时间: 2026-03-07T21:20:55+0800
轨道信息已过期99天
半长轴: 6534.383km
偏心率: 0.0005231
轨道倾角: 42.964°
近地点辐角 331.642°
升交点赤经 160.431°
平近点角 28.418°
近地点: 152.827km
远地点: 159.665km
周期: 87.613分钟
每日圈数: 16.435994
Detailed Information
固有亮度:
5
最大亮度:
2.4
卫星平台:
Starlink v1.5
覆盖范围:
全球
运营商:
太空探索技术公司
运营商所在国:
美国
制造商(研发单位):
太空探索技术公司
制造商所在国:
美国
使用方式:
暂无
Satellite Introduction
星链(Starlink)计划是由太空探索技术公司(SpaceX)提出的一个巨型低轨卫星互联网星座项目,计划在2019年至2024年间在太空搭建由约1.2万颗卫星组成的“星链”网络,其中1584颗将部署在地球上空550千米处的近地轨道,并从2020年开始工作。该卫星仍在工作。